timestamp,wind_dir_avg,wind_spd_max_dir,wind_spd_avg,wind_spd_gust,battery_voltage,lat,long
2018-07-07 00:00:00+00:00,222.0,229.0,11.71,13.54,,47.59359,-54.27349
2018-07-07 00:10:00+00:00,222.0,218.0,11.29,13.79,,47.59359,-54.27349
2018-07-07 00:20:00+00:00,226.0,220.0,12.25,14.16,,47.59359,-54.27349
2018-07-07 00:30:00+00:00,227.0,229.0,12.21,13.29,,47.59359,-54.27349
2018-07-07 00:40:00+00:00,225.0,224.0,11.6,12.96,,47.59359,-54.27349
2018-07-07 00:50:00+00:00,223.0,226.0,12.46,13.82,,47.59359,-54.27349
2018-07-07 01:00:00+00:00,223.0,225.0,12.83,15.45,,47.59359,-54.27349
2018-07-07 01:10:00+00:00,223.0,226.0,12.15,13.92,,47.59359,-54.27349
2018-07-07 01:20:00+00:00,224.0,226.0,12.78,14.15,,47.59359,-54.27349
2018-07-07 01:30:00+00:00,223.0,223.0,12.33,13.73,,47.59359,-54.27349
2018-07-07 01:40:00+00:00,223.0,222.0,13.56,15.51,,47.59359,-54.27349
2018-07-07 01:50:00+00:00,223.0,226.0,12.99,14.53,,47.59359,-54.27349
2018-07-07 02:00:00+00:00,222.0,222.0,12.09,13.15,,47.59359,-54.27349
2018-07-07 02:10:00+00:00,222.0,221.0,12.46,14.44,,47.59359,-54.27349
2018-07-07 02:20:00+00:00,222.0,224.0,11.32,12.81,,47.59359,-54.27349
2018-07-07 02:30:00+00:00,222.0,222.0,10.95,12.56,,47.59359,-54.27349
2018-07-07 02:40:00+00:00,219.0,219.0,11.94,13.52,,47.59359,-54.27349
2018-07-07 02:50:00+00:00,219.0,220.0,11.79,13.04,,47.59359,-54.27349
2018-07-07 03:00:00+00:00,220.0,222.0,11.99,13.43,,47.59359,-54.27349
2018-07-07 03:10:00+00:00,219.0,219.0,11.97,13.32,,47.59359,-54.27349
2018-07-07 03:20:00+00:00,220.0,222.0,12.23,13.5,,47.59359,-54.27349
2018-07-07 03:30:00+00:00,221.0,219.0,12.46,13.4,,47.59359,-54.27349
2018-07-07 03:40:00+00:00,220.0,224.0,11.26,12.86,,47.59359,-54.27349
2018-07-07 03:50:00+00:00,219.0,213.0,11.01,13.47,,47.59359,-54.27349
2018-07-07 04:00:00+00:00,216.0,216.0,10.75,11.85,,47.59359,-54.27349
2018-07-07 04:10:00+00:00,222.0,223.0,10.69,11.62,,47.59359,-54.27349
2018-07-07 04:20:00+00:00,221.0,220.0,10.67,11.57,,47.59359,-54.27349
2018-07-07 04:30:00+00:00,222.0,227.0,10.14,11.67,,47.59359,-54.27349
2018-07-07 04:40:00+00:00,224.0,226.0,10.57,11.29,,47.59359,-54.27349
2018-07-07 04:50:00+00:00,224.0,225.0,10.59,11.79,,47.59359,-54.27349
2018-07-07 05:00:00+00:00,221.0,224.0,11.23,12.17,,47.59359,-54.27349
2018-07-07 05:10:00+00:00,225.0,227.0,9.46,10.55,,47.59359,-54.27349
2018-07-07 05:20:00+00:00,224.0,222.0,9.15,10.62,,47.59359,-54.27349
2018-07-07 05:30:00+00:00,223.0,223.0,9.5,10.49,,47.59359,-54.27349
2018-07-07 05:40:00+00:00,219.0,220.0,10.34,11.56,,47.59359,-54.27349
2018-07-07 05:50:00+00:00,223.0,224.0,10.78,12.69,,47.59359,-54.27349
2018-07-07 06:00:00+00:00,221.0,223.0,10.41,11.82,,47.59359,-54.27349
2018-07-07 06:10:00+00:00,224.0,228.0,9.63,10.92,,47.59359,-54.27349
2018-07-07 06:20:00+00:00,223.0,223.0,10.25,11.09,,47.59359,-54.27349
2018-07-07 06:30:00+00:00,221.0,219.0,9.27,10.89,,47.59359,-54.27349
2018-07-07 06:40:00+00:00,220.0,223.0,8.7,10.14,,47.59359,-54.27349
2018-07-07 06:50:00+00:00,218.0,214.0,9.75,11.01,,47.59359,-54.27349
2018-07-07 07:00:00+00:00,216.0,216.0,10.83,11.72,,47.59359,-54.27349
2018-07-07 07:10:00+00:00,224.0,227.0,10.65,12.39,,47.59359,-54.27349
2018-07-07 07:20:00+00:00,227.0,227.0,11.27,12.79,,47.59359,-54.27349
2018-07-07 07:30:00+00:00,230.0,233.0,9.89,11.15,,47.59359,-54.27349
2018-07-07 07:40:00+00:00,225.0,224.0,9.76,11.66,,47.59359,-54.27349
2018-07-07 07:50:00+00:00,231.0,232.0,7.91,9.35,,47.59359,-54.27349
2018-07-07 08:00:00+00:00,232.0,232.0,8.78,9.83,,47.59359,-54.27349
2018-07-07 08:10:00+00:00,223.0,221.0,10.24,11.12,,47.59359,-54.27349
2018-07-07 08:20:00+00:00,216.0,218.0,9.74,10.64,,47.59359,-54.27349
2018-07-07 08:30:00+00:00,221.0,221.0,9.92,10.88,,47.59359,-54.27349
2018-07-07 08:40:00+00:00,224.0,225.0,9.7,10.76,,47.59359,-54.27349
2018-07-07 08:50:00+00:00,222.0,220.0,9.43,10.91,,47.59359,-54.27349
2018-07-07 09:00:00+00:00,215.0,215.0,8.58,9.57,,47.59359,-54.27349
2018-07-07 09:10:00+00:00,218.0,220.0,8.51,9.1,,47.59359,-54.27349
2018-07-07 09:20:00+00:00,223.0,223.0,8.5,9.29,,47.59359,-54.27349
2018-07-07 09:30:00+00:00,226.0,225.0,8.83,9.76,,47.59359,-54.27349
2018-07-07 09:40:00+00:00,225.0,228.0,9.29,9.8,,47.59359,-54.27349
2018-07-07 09:50:00+00:00,223.0,220.0,10.42,11.0,,47.59359,-54.27349
2018-07-07 10:00:00+00:00,219.0,227.0,9.91,10.97,,47.59359,-54.27349
2018-07-07 10:10:00+00:00,216.0,219.0,9.95,11.24,,47.59359,-54.27349
2018-07-07 10:20:00+00:00,219.0,222.0,9.56,10.64,,47.59359,-54.27349
2018-07-07 10:30:00+00:00,219.0,216.0,9.52,10.42,,47.59359,-54.27349
2018-07-07 10:40:00+00:00,216.0,219.0,8.88,9.85,,47.59359,-54.27349
2018-07-07 10:50:00+00:00,214.0,215.0,8.7,9.89,,47.59359,-54.27349
2018-07-07 11:00:00+00:00,217.0,219.0,8.46,9.48,,47.59359,-54.27349
2018-07-07 11:10:00+00:00,218.0,217.0,8.43,9.9,,47.59359,-54.27349
2018-07-07 11:20:00+00:00,225.0,239.0,10.62,14.14,,47.59359,-54.27349
2018-07-07 11:30:00+00:00,224.0,224.0,10.25,12.09,,47.59359,-54.27349
2018-07-07 11:40:00+00:00,221.0,223.0,9.67,10.74,,47.59359,-54.27349
2018-07-07 11:50:00+00:00,227.0,228.0,8.61,9.98,,47.59359,-54.27349
2018-07-07 12:00:00+00:00,228.0,229.0,8.39,9.61,,47.59359,-54.27349
2018-07-07 12:10:00+00:00,218.0,220.0,9.6,10.99,,47.59359,-54.27349
2018-07-07 12:20:00+00:00,221.0,222.0,10.75,11.65,,47.59359,-54.27349
2018-07-07 12:30:00+00:00,221.0,219.0,9.73,10.88,,47.59359,-54.27349
2018-07-07 12:40:00+00:00,217.0,218.0,9.41,10.4,,47.59359,-54.27349
2018-07-07 12:50:00+00:00,218.0,219.0,9.58,10.63,,47.59359,-54.27349
2018-07-07 13:00:00+00:00,217.0,220.0,9.85,10.96,,47.59359,-54.27349
2018-07-07 13:10:00+00:00,220.0,223.0,9.58,10.49,,47.59359,-54.27349
2018-07-07 13:20:00+00:00,217.0,219.0,9.72,10.81,,47.59359,-54.27349
2018-07-07 13:30:00+00:00,218.0,218.0,9.91,10.63,,47.59359,-54.27349
2018-07-07 13:40:00+00:00,218.0,219.0,9.58,10.87,,47.59359,-54.27349
2018-07-07 13:50:00+00:00,221.0,225.0,9.43,10.76,,47.59359,-54.27349
2018-07-07 14:00:00+00:00,231.0,235.0,8.26,9.82,,47.59359,-54.27349
2018-07-07 14:10:00+00:00,231.0,234.0,8.52,9.54,,47.59359,-54.27349
2018-07-07 14:20:00+00:00,234.0,238.0,9.56,10.78,,47.59359,-54.27349
2018-07-07 14:30:00+00:00,235.0,235.0,9.21,10.16,,47.59359,-54.27349
2018-07-07 14:40:00+00:00,245.0,248.0,7.81,9.33,,47.59359,-54.27349
2018-07-07 14:50:00+00:00,246.0,250.0,9.08,10.23,,47.59359,-54.27349
2018-07-07 15:00:00+00:00,237.0,239.0,8.61,9.74,,47.59359,-54.27349
2018-07-07 15:10:00+00:00,269.0,268.0,13.11,14.36,,47.59359,-54.27349
2018-07-07 15:20:00+00:00,266.0,267.0,12.23,13.95,,47.59359,-54.27349
2018-07-07 15:30:00+00:00,264.0,264.0,12.0,14.48,,47.59359,-54.27349
2018-07-07 15:40:00+00:00,259.0,260.0,11.23,14.52,,47.59359,-54.27349
2018-07-07 15:50:00+00:00,255.0,255.0,12.71,15.21,,47.59359,-54.27349
2018-07-07 16:00:00+00:00,261.0,260.0,12.16,14.13,,47.59359,-54.27349
2018-07-07 16:10:00+00:00,262.0,263.0,12.29,14.35,,47.59359,-54.27349
2018-07-07 16:20:00+00:00,257.0,254.0,11.28,12.93,,47.59359,-54.27349
2018-07-07 16:30:00+00:00,257.0,248.0,8.61,10.05,,47.59359,-54.27349
2018-07-07 16:40:00+00:00,258.0,256.0,9.42,10.92,,47.59359,-54.27349
2018-07-07 16:50:00+00:00,255.0,258.0,9.0,9.83,,47.59359,-54.27349
2018-07-07 17:00:00+00:00,253.0,252.0,8.37,9.43,,47.59359,-54.27349
2018-07-07 17:10:00+00:00,260.0,259.0,7.27,8.27,,47.59359,-54.27349
2018-07-07 17:20:00+00:00,277.0,281.0,9.3,10.92,,47.59359,-54.27349
2018-07-07 17:30:00+00:00,271.0,267.0,8.7,9.4,,47.59359,-54.27349
2018-07-07 17:40:00+00:00,278.0,282.0,6.44,7.48,,47.59359,-54.27349
2018-07-07 17:50:00+00:00,289.0,289.0,9.61,10.56,,47.59359,-54.27349
2018-07-07 18:00:00+00:00,279.0,278.0,9.13,11.59,,47.59359,-54.27349
2018-07-07 18:10:00+00:00,287.0,286.0,7.54,8.44,,47.59359,-54.27349
2018-07-07 18:20:00+00:00,290.0,286.0,8.13,9.32,,47.59359,-54.27349
2018-07-07 18:30:00+00:00,281.0,283.0,9.45,10.36,,47.59359,-54.27349
2018-07-07 18:40:00+00:00,278.0,279.0,9.13,9.98,,47.59359,-54.27349
2018-07-07 18:50:00+00:00,289.0,286.0,9.97,11.59,,47.59359,-54.27349
2018-07-07 19:00:00+00:00,288.0,286.0,10.22,11.33,,47.59359,-54.27349
2018-07-07 19:10:00+00:00,282.0,283.0,9.06,9.92,,47.59359,-54.27349
2018-07-07 19:20:00+00:00,283.0,287.0,8.55,9.87,,47.59359,-54.27349
2018-07-07 19:30:00+00:00,283.0,286.0,9.77,11.6,,47.59359,-54.27349
2018-07-07 19:40:00+00:00,288.0,291.0,9.68,11.0,,47.59359,-54.27349
2018-07-07 19:50:00+00:00,284.0,288.0,7.43,10.83,,47.59359,-54.27349
2018-07-07 20:00:00+00:00,276.0,280.0,7.49,8.59,,47.59359,-54.27349
2018-07-07 20:10:00+00:00,283.0,284.0,10.27,11.13,,47.59359,-54.27349
2018-07-07 20:20:00+00:00,283.0,284.0,7.0,8.51,,47.59359,-54.27349
2018-07-07 20:30:00+00:00,280.0,283.0,8.68,9.21,,47.59359,-54.27349
2018-07-07 20:40:00+00:00,274.0,274.0,8.31,9.53,,47.59359,-54.27349
2018-07-07 20:50:00+00:00,273.0,275.0,6.49,7.07,,47.59359,-54.27349
2018-07-07 21:00:00+00:00,279.0,276.0,7.88,8.43,,47.59359,-54.27349
2018-07-07 21:10:00+00:00,285.0,290.0,9.64,10.89,,47.59359,-54.27349
2018-07-07 21:20:00+00:00,282.0,280.0,7.02,9.19,,47.59359,-54.27349
2018-07-07 21:30:00+00:00,279.0,277.0,7.41,8.65,,47.59359,-54.27349
2018-07-07 21:40:00+00:00,281.0,283.0,9.03,9.94,,47.59359,-54.27349
2018-07-07 21:50:00+00:00,282.0,288.0,8.22,10.21,,47.59359,-54.27349
2018-07-07 22:00:00+00:00,276.0,277.0,5.58,6.12,,47.59359,-54.27349
2018-07-07 22:10:00+00:00,285.0,286.0,8.24,10.85,,47.59359,-54.27349
2018-07-07 22:20:00+00:00,289.0,283.0,9.25,11.13,,47.59359,-54.27349
2018-07-07 22:30:00+00:00,286.0,288.0,8.67,10.3,,47.59359,-54.27349
2018-07-07 22:40:00+00:00,288.0,289.0,9.82,11.63,,47.59359,-54.27349
2018-07-07 22:50:00+00:00,294.0,294.0,9.42,10.22,,47.59359,-54.27349
2018-07-07 23:00:00+00:00,290.0,288.0,9.64,10.67,,47.59359,-54.27349
2018-07-07 23:10:00+00:00,291.0,292.0,9.38,10.61,,47.59359,-54.27349
2018-07-07 23:20:00+00:00,285.0,287.0,9.5,10.83,,47.59359,-54.27349
2018-07-07 23:30:00+00:00,296.0,298.0,8.33,9.72,,47.59359,-54.27349
2018-07-07 23:40:00+00:00,295.0,289.0,8.33,9.83,,47.59359,-54.27349
2018-07-07 23:50:00+00:00,298.0,298.0,8.28,8.78,,47.59359,-54.27349
